Volver al catálogo

STARLINK-36246

ActivoComunicacionesVLEO
NORAD 67939·PAYLOAD·🇺🇸 United States

Lanzado Feb 24, 2026 desde Vandenberg Space Force Base

Loading…

Próximos Pases (próximas 24 horas)

TLE

ActualizadoSource: CelesTrak SupGP

Época: Sep 15, 2026, 03:33 UTC

1 67939C 26037H   26258.14840278 -.00025429  00000+0 -92125-3 0  2582
2 67939  42.9994 200.8618 0001176 270.8303 136.3177 15.27583685    15

Sigue STARLINK-36246 en tiempo real con AllMySat

Download on the App Store